McGuire AFB, NJ

2:13 AM EDT on June 29, 2017 (GMT -0400)
McGuire Air Force Base

Weather History for KWRI - December, 2013

Change the Weather History Date:

Tuesday, December 10, 2013

  Actual Average Record
Temperature  
Mean Temperature 28 °F -  
Max Temperature 33 °F 46 °F 66 °F (2008)
Min Temperature 23 °F 29 °F 14 °F (2002)
Degree Days  
Heating Degree Days 36    
Moisture  
Dew Point 31 °F    
Average Humidity 98    
Maximum Humidity 100    
Minimum Humidity 83    
Precipitation  
Precipitation 0.01 in - - ()
Sea Level Pressure  
Sea Level Pressure 29.96 in    
Wind  
Wind Speed 7 mph (WNW)    
Max Wind Speed 14 mph    
Max Gust Speed -    
Visibility 4 miles    
Events Snow    
Averages and records for this station are not official NWS values.
T = Trace of Precipitation, MM = Missing Value Source: NWS Daily Summary

Daily Weather History Graph

Daily Weather History Graph

Search for Another Location

Airport or City:

Trip Planner

Search our weather history database for the weather conditions in past years. The results will help you decide how hot, cold, wet, or windy it might be!

Date:

Astronomy

Dec. 10, 2013 Rise Set
Actual Time 7:09 AM EST 4:33 PM EST
Civil Twilight 6:39 AM EST 5:03 PM EST
Nautical Twilight 6:05 AM EST 5:37 PM EST
Astronomical Twilight 5:32 AM EST 6:10 PM EST
Moon 12:33 PM EST (12/10) 12:25 AM EST (12/10)
Length of Visible Light 10h 24m
Length of Day
9h 23m
First Quarter, 61% of the Moon is Illuminated
Dec 10
First Quarter
Dec 17
Full
Dec 25
Last Quarter
Jan 1
New
Jan 7
First Quarter

Hourly Weather History & Observations

Time (EST) Temp. Windchill Dew Point Humidity Pressure Visibility Wind Dir Wind Speed Gust Speed Precip Events Conditions
12:58 AM 32.0 °F 24.8 °F 32.0 °F 100% 30.04 in 5.0 mi SW 8.1 mph - N/A   Mostly Cloudy
1:01 AM 32.0 °F 25.6 °F 32.0 °F 100% 30.02 in 5.0 mi SW 6.9 mph - N/A   Scattered Clouds
1:55 AM 32.0 °F 26.4 °F 32.0 °F 100% 30.02 in 5.0 mi SSW 5.8 mph - N/A   Mostly Cloudy
1:58 AM 32.0 °F 26.4 °F 31.8 °F 99% 30.04 in 5.0 mi SSW 5.8 mph - N/A   Mostly Cloudy
2:52 AM 32.0 °F 26.4 °F 32.0 °F 100% 30.00 in 4.0 mi SSW 5.8 mph - N/A   Scattered Clouds
2:58 AM 31.6 °F 26.0 °F 31.5 °F 99% 30.01 in 4.0 mi SSW 5.8 mph - N/A   Scattered Clouds
3:07 AM 32.0 °F 25.6 °F 32.0 °F 100% 29.99 in 3.0 mi SW 6.9 mph - N/A   Mostly Cloudy
3:10 AM 32.0 °F 25.6 °F 32.0 °F 100% 29.99 in 2.5 mi SW 6.9 mph - N/A   Mostly Cloudy
3:22 AM 32.0 °F 25.6 °F 32.0 °F 100% 30.01 in 2.5 mi WSW 6.9 mph - N/A   Mostly Cloudy
3:25 AM 32.0 °F 26.4 °F 32.0 °F 100% 30.00 in 3.0 mi WSW 5.8 mph - N/A   Overcast
3:40 AM 32.0 °F 25.6 °F 32.0 °F 100% 30.00 in 4.0 mi WSW 6.9 mph - N/A   Mostly Cloudy
3:52 AM 32.0 °F 24.8 °F 32.0 °F 100% 30.02 in 5.0 mi West 8.1 mph - N/A   Mostly Cloudy
3:58 AM 32.7 °F 26.4 °F 32.4 °F 99% 30.05 in 6.0 mi West 6.9 mph - N/A   Mostly Cloudy
4:10 AM 32.0 °F 27.5 °F 32.0 °F 100% 30.02 in 7.0 mi West 4.6 mph - N/A   Overcast
4:55 AM 32.0 °F 27.5 °F 32.0 °F 100% 29.99 in 10.0 mi West 4.6 mph - N/A   Overcast
4:58 AM 33.3 °F 30.2 °F 33.1 °F 99% 30.01 in 10.0 mi West 3.5 mph - N/A   Overcast
5:19 AM 32.0 °F 27.5 °F 32.0 °F 100% 29.96 in 10.0 mi WNW 4.6 mph - N/A   Mostly Cloudy
5:58 AM 32.9 °F 27.5 °F 32.0 °F 96% 29.99 in 8.0 mi West 5.8 mph - N/A   Overcast
6:58 AM 33.4 °F 26.6 °F 32.4 °F 96% 30.01 in 9.0 mi West 8.1 mph - N/A   Partly Cloudy
7:04 AM 32.0 °F 26.4 °F 32.0 °F 100% 29.98 in 9.0 mi West 5.8 mph - N/A   Partly Cloudy
7:58 AM 33.8 °F 27.7 °F 31.8 °F 92% 30.01 in 8.0 mi West 6.9 mph - N/A   Partly Cloudy
8:28 AM 33.8 °F 28.6 °F 32.0 °F 93% 29.99 in 10.0 mi WNW 5.8 mph - N/A   Partly Cloudy
8:40 AM 33.8 °F 25.8 °F 32.0 °F 93% 29.98 in 4.0 mi NW 10.4 mph - N/A Snow Light Snow
8:43 AM 32.0 °F 24.2 °F 32.0 °F 100% 29.97 in 3.0 mi NW 9.2 mph - N/A Snow Light Snow
8:46 AM 32.0 °F 23.0 °F 32.0 °F 100% 29.97 in 2.0 mi NW 11.5 mph - N/A Snow Light Snow
8:49 AM 32.0 °F 23.6 °F 32.0 °F 100% 29.98 in 1.8 mi NW 10.4 mph - N/A Snow Light Snow
8:52 AM 32.0 °F 23.6 °F 32.0 °F 100% 29.99 in 1.5 mi NW 10.4 mph - N/A Snow Light Snow
8:53 AM 32.0 °F 23.6 °F 32.0 °F 100% 29.98 in 1.5 mi NW 10.4 mph - N/A Snow Light Snow
8:58 AM 32.9 °F 24.1 °F 31.6 °F 95% 30.00 in 1.5 mi NW 11.5 mph - 0.00 in Snow Light Snow
9:01 AM 32.0 °F 22.5 °F 32.0 °F 100% 29.97 in 2.0 mi NNW 12.7 mph - N/A Snow Light Snow
9:10 AM 32.0 °F 23.0 °F 32.0 °F 100% 29.97 in 3.0 mi NW 11.5 mph - N/A Snow Light Snow
9:11 AM 32.0 °F 23.6 °F 32.0 °F 100% 29.97 in 3.0 mi NW 10.4 mph - N/A Snow Light Snow
9:17 AM 32.0 °F 23.0 °F 32.0 °F 100% 29.97 in 3.0 mi NW 11.5 mph - N/A Snow Light Snow
9:26 AM 32.0 °F 25.6 °F 32.0 °F 100% 29.98 in 3.0 mi NW 6.9 mph - N/A Snow Light Snow
9:32 AM 32.0 °F 24.8 °F 32.0 °F 100% 29.97 in 2.5 mi NW 8.1 mph - N/A Snow Light Snow
9:53 AM 32.0 °F 24.8 °F 32.0 °F 100% 29.96 in 2.5 mi NNW 8.1 mph - N/A Snow Light Snow
9:58 AM 32.5 °F 27.1 °F 32.0 °F 98% 29.98 in 2.5 mi NNW 5.8 mph - 0.00 in Snow Light Snow
10:10 AM 32.0 °F 25.6 °F 32.0 °F 100% 29.95 in 1.8 mi NNW 6.9 mph - N/A Snow Light Snow
10:13 AM 32.0 °F 26.4 °F 32.0 °F 100% 29.95 in 2.0 mi NNW 5.8 mph - N/A Snow Light Snow
10:19 AM 32.0 °F 27.5 °F 32.0 °F 100% 29.95 in 2.0 mi NW 4.6 mph - N/A Snow Light Snow
10:25 AM 32.0 °F 27.5 °F 32.0 °F 100% 29.94 in 2.0 mi NNW 4.6 mph - N/A Snow Light Snow
10:34 AM 32.0 °F 27.5 °F 32.0 °F 100% 29.93 in 2.5 mi NW 4.6 mph - N/A Snow Light Snow
10:37 AM 32.0 °F 27.5 °F 32.0 °F 100% 29.92 in 3.0 mi NW 4.6 mph - N/A Snow Light Snow
10:43 AM 32.0 °F - 32.0 °F 100% 29.92 in 4.0 mi NW 2.3 mph - N/A Snow Light Snow
10:55 AM 32.0 °F 28.7 °F 32.0 °F 100% 29.91 in 5.0 mi NW 3.5 mph - N/A Snow Light Snow
10:58 AM 32.5 °F 29.3 °F 32.4 °F 99% 29.94 in 4.0 mi WNW 3.5 mph - 0.00 in Snow Light Snow
11:28 AM 32.0 °F 24.8 °F 32.0 °F 100% 29.93 in 2.5 mi West 8.1 mph - N/A Snow Light Snow
11:37 AM 32.0 °F 25.6 °F 32.0 °F 100% 29.92 in 1.8 mi WNW 6.9 mph - N/A Snow Light Snow
11:40 AM 32.0 °F 25.6 °F 32.0 °F 100% 29.91 in 1.5 mi NW 6.9 mph - N/A Snow Light Snow
11:43 AM 32.0 °F 26.4 °F 32.0 °F 100% 29.91 in 1.2 mi NW 5.8 mph - N/A Snow Light Snow
11:46 AM 32.0 °F 26.4 °F 32.0 °F 100% 29.91 in 1.0 mi WNW 5.8 mph - N/A Snow Light Snow
11:49 AM 32.0 °F 25.6 °F 32.0 °F 100% 29.91 in 1.0 mi WNW 6.9 mph - N/A Snow Light Snow
11:52 AM 32.0 °F 27.5 °F 32.0 °F 100% 29.91 in 0.8 mi WNW 4.6 mph - N/A Snow Light Snow
11:55 AM 32.0 °F 27.5 °F 32.0 °F 100% 29.89 in 0.8 mi NW 4.6 mph - N/A Snow Light Snow
11:58 AM 32.0 °F 28.7 °F 32.0 °F 100% 29.88 in 0.8 mi NNW 3.5 mph - 0.00 in Snow Light Snow
12:01 PM 32.0 °F 27.5 °F 32.0 °F 100% 29.89 in 0.8 mi WNW 4.6 mph - N/A Snow Light Snow
12:04 PM 32.0 °F 27.5 °F 32.0 °F 100% 29.89 in 0.8 mi WNW 4.6 mph - N/A Snow Light Snow
12:07 PM 32.0 °F 25.6 °F 32.0 °F 100% 29.91 in 0.8 mi West 6.9 mph - N/A Snow Light Snow
12:10 PM 32.0 °F 24.2 °F 32.0 °F 100% 29.91 in 0.8 mi West 9.2 mph - N/A Snow Light Snow
12:13 PM 32.0 °F 23.6 °F 32.0 °F 100% 29.91 in 1.0 mi West 10.4 mph - N/A Snow Light Snow
12:16 PM 32.0 °F 23.0 °F 32.0 °F 100% 29.91 in 1.0 mi WNW 11.5 mph - N/A Snow Light Snow
12:19 PM 32.0 °F 23.0 °F 32.0 °F 100% 29.90 in 1.2 mi WNW 11.5 mph - N/A Snow Light Snow
12:22 PM 32.0 °F 22.1 °F 32.0 °F 100% 29.90 in 1.5 mi WNW 13.8 mph - N/A Snow Light Snow
12:25 PM 32.0 °F 22.5 °F 32.0 °F 100% 29.91 in 2.0 mi WNW 12.7 mph - N/A Snow Light Snow
12:31 PM 32.0 °F 23.6 °F 32.0 °F 100% 29.91 in 2.5 mi WNW 10.4 mph - N/A Snow Light Snow
12:34 PM 32.0 °F 24.2 °F 32.0 °F 100% 29.91 in 1.8 mi WNW 9.2 mph - N/A Snow Light Snow
12:37 PM 32.0 °F 23.6 °F 32.0 °F 100% 29.91 in 1.2 mi WNW 10.4 mph - N/A Snow Light Snow
12:49 PM 32.0 °F 23.0 °F 32.0 °F 100% 29.91 in 1.2 mi WNW 11.5 mph - N/A Snow Light Snow
12:52 PM 32.0 °F 23.6 °F 32.0 °F 100% 29.91 in 1.2 mi WNW 10.4 mph - N/A Snow Light Snow
12:58 PM 32.0 °F 23.0 °F 32.0 °F 100% 29.93 in 1.5 mi WNW 11.5 mph - 0.00 in Snow Light Snow
1:01 PM 32.0 °F 24.2 °F 32.0 °F 100% 29.91 in 1.5 mi WNW 9.2 mph - N/A Snow Light Snow
1:10 PM 32.0 °F 23.6 °F 32.0 °F 100% 29.91 in 1.8 mi WNW 10.4 mph - N/A Snow Light Snow
1:13 PM 32.0 °F 24.8 °F 32.0 °F 100% 29.91 in 2.0 mi WNW 8.1 mph - N/A Snow Light Snow
1:16 PM 32.0 °F 23.6 °F 32.0 °F 100% 29.91 in 2.0 mi WNW 10.4 mph - N/A Snow Light Snow
1:19 PM 32.0 °F 24.2 °F 32.0 °F 100% 29.91 in 2.5 mi WNW 9.2 mph - N/A Snow Light Snow
1:25 PM 32.0 °F 24.2 °F 32.0 °F 100% 29.90 in 2.5 mi WNW 9.2 mph - N/A Snow Light Snow
1:31 PM 32.0 °F 24.2 °F 32.0 °F 100% 29.91 in 3.0 mi WNW 9.2 mph - N/A Snow Light Snow
1:43 PM 32.0 °F 24.2 °F 32.0 °F 100% 29.91 in 10.0 mi West 9.2 mph - N/A Snow Light Snow
1:46 PM 32.0 °F 23.0 °F 32.0 °F 100% 29.92 in 10.0 mi WNW 11.5 mph - N/A Snow Light Snow
1:52 PM 32.0 °F 24.8 °F 32.0 °F 100% 29.92 in 10.0 mi West 8.1 mph - N/A Snow Light Snow
1:55 PM 32.0 °F 23.6 °F 32.0 °F 100% 29.92 in 10.0 mi West 10.4 mph - N/A Snow Light Snow
1:58 PM 32.4 °F 24.0 °F 30.9 °F 94% 29.94 in 10.0 mi West 10.4 mph - 0.01 in Snow Light Snow
2:25 PM 32.0 °F 24.2 °F 30.2 °F 93% 29.93 in 7.0 mi West 9.2 mph - N/A Snow Light Snow
2:37 PM 32.0 °F 23.0 °F 30.2 °F 93% 29.93 in 9.0 mi West 11.5 mph - N/A Snow Light Snow
2:40 PM 32.0 °F 24.2 °F 30.2 °F 93% 29.93 in 10.0 mi West 9.2 mph - N/A   Overcast
2:49 PM 32.0 °F 25.6 °F 32.0 °F 100% 29.93 in 10.0 mi West 6.9 mph - N/A   Overcast
2:58 PM 32.5 °F 24.8 °F 30.7 °F 93% 29.95 in 10.0 mi West 9.2 mph - 0.00 in   Mostly Cloudy
3:04 PM 32.0 °F 24.8 °F 32.0 °F 100% 29.93 in 10.0 mi West 8.1 mph - N/A   Mostly Cloudy
3:58 PM 32.4 °F 24.0 °F 29.1 °F 88% 29.98 in 10.0 mi West 10.4 mph - N/A   Clear
4:58 PM 30.9 °F 24.3 °F 27.7 °F 88% 30.00 in 10.0 mi West 6.9 mph - N/A   Clear
5:58 PM 28.9 °F 22.8 °F 26.8 °F 92% 30.03 in 10.0 mi WSW 5.8 mph - N/A   Clear
6:58 PM 29.1 °F 22.1 °F 26.2 °F 89% 30.06 in 10.0 mi WSW 6.9 mph - N/A   Clear
8:58 PM 28.0 °F 20.8 °F 23.4 °F 83% 30.10 in 10.0 mi WSW 6.9 mph - N/A   Clear
9:58 PM 24.8 °F 16.9 °F 21.2 °F 86% 30.12 in 10.0 mi SW 6.9 mph - N/A   Clear
11:58 PM 23.0 °F 14.7 °F 19.6 °F 87% 30.18 in 10.0 mi SW 6.9 mph - N/A   Clear